Flag for Canada Weather past 2 weeks in Inuvik, Northwest Territories, Canada

Now
1 °F

Light snow. Overcast.


Feels Like: -11 °F
Forecast: -3 / 5 °F
Wind: 7 mph from West

Location: Inuvik

Current Time: Jan 31, 2015 at 12:11:04 PM

Latest Report: Jan 31, 2015 at 11:00 AM


Visibility: 2 mi

Pressure: 30.39 "Hg

Humidity: 85%

Dew point: -2 °F

Location of InuvikLocation

Historic Weather in Inuvik — Graph

°F

Inuvik temperature yesterday

Maximum temperature yesterday: -4 °F (at 2:00 PM)
Minimum temperature yesterday: -24 °F (at 12:00 AM)
Average temperature yesterday: -12 °F

Past Weeks' High & Low Weather Summary

 TemperatureHumidityPressure
High3 °F (Jan 31, 7:00 AM)85% (Jan 31, 10:00 AM)30.76 "Hg (Jan 31, 10:00 AM)
Low-29 °F (Jan 27, 1:00 AM)57% (Jan 26, 6:00 PM)29.41 "Hg (Jan 16, 11:00 AM)
Average-10 °F75%30.01 "Hg
* Reported Jan 16 11:00 AM — Jan 31 11:00 AM, Inuvik, Weather by CustomWeather, © 2014

Note: Actual official high and low records may vary slightly from our data, if they occured in-between our weather recording intervals... More about our weather records

Advertising

Inuvik weather history for previous 24 hours

 ConditionsComfort  
Time TempWeatherWind HumidityBarometerVisibility
11:00 AM
Jan 31
1 °FLight snow. Overcast.7 mph85%30.39 "Hg2 mi
10:00 AM3 °FLight snow. Overcast.8 mph85%30.36 "Hg4 mi
9:00 AM3 °FLight snow. Overcast.6 mph78%30.34 "Hg6 mi
8:00 AM3 °FLight snow. Mostly cloudy.5 mph78%30.35 "Hg10 mi
7:00 AM3 °FLight snow. Overcast.5 mph72%30.36 "Hg15 mi
6:00 AM1 °FOvercast.3 mph78%30.37 "Hg15 mi
5:00 AM1 °FOvercast.3 mph65%30.38 "Hg15 mi
4:00 AM0 °FOvercast.No wind71%30.39 "Hg15 mi
3:00 AM-2 °FMostly cloudy.2 mph71%30.39 "Hg15 mi
2:00 AM-2 °FMostly cloudy.6 mph65%30.40 "Hg15 mi
1:55 AM-2 °FMostly cloudy.7 mph65%30.40 "Hg15 mi
1:00 AM-2 °FOvercast.8 mph71%30.41 "Hg20 mi
12:00 AM-4 °FOvercast.9 mph65%30.42 "Hg15 mi
11:00 PM
Jan 30
-6 °FOvercast.6 mph64%30.44 "Hg15 mi
10:00 PM-6 °FOvercast.8 mph64%30.45 "Hg15 mi
9:00 PM-6 °FPassing clouds.12 mph64%30.47 "Hg15 mi
8:00 PM-8 °FPassing clouds.10 mph64%30.48 "Hg15 mi
7:00 PM-8 °FPassing clouds.13 mph64%30.48 "Hg15 mi
6:00 PM-8 °FBroken clouds.No wind64%30.52 "Hg15 mi
5:00 PM-8 °FPartly sunny.6 mph58%30.54 "Hg15 mi
4:00 PM-4 °FPartly sunny.12 mph59%30.56 "Hg15 mi
3:00 PM-4 °FPartly sunny.16 mph59%30.59 "Hg15 mi
2:00 PM-4 °FLow level haze.10 mph59%30.61 "Hg15 mi
1:00 PM-6 °FClear.12 mph59%30.64 "Hg15 mi
12:00 PM-8 °FClear.12 mph58%30.66 "Hg15 mi
Weather by CustomWeather, © 2014

See weather overviewHow to use our weather pages